Regional Weather Roundup
Issued by NWS Charleston, SC

Current Version | Previous Version | Graphics & Text | Print | Product List | Glossary On
Versions: 1 2 3 4 5 6 7 8 9 10 11 12 13 14 15 16 17 18 19 20 21 22 23 24 25 26 27 28 29 30 31 32 33 34 35 36 37 38 39 40 41 42 43 44 45 46 47 48 49 50
000
ASUS42 KCHS 030726
RWRCHS

REGIONAL WEATHER ROUNDUP
NATIONAL WEATHER SERVICE CHARLESTON SC
200 AM EST TUE MAR 03 2015

NOTE: "FAIR" INDICATES FEW OR NO CLOUDS BELOW 12,000 FEET WITH NO
SIGNIFICANT WEATHER AND/OR OBSTRUCTIONS TO VISIBILITY.

NOT ALL STATIONS ARE QUALITY CONTROLLED BY THE NATIONAL
WEATHER SERVICE. USE DATA WITH CAUTION...ESPECIALLY
DEWPOINT OBSERVATIONS.

SCZ027-030-031-034>040-042>050-030800-
...SOUTHEAST SOUTH CAROLINA...

CITY           SKY/WX    TMP DP  RH WIND       PRES   REMARKS
N CHARLESTON   PTCLDY    56  51  84 E9        30.24F
WATERFRONT PRK   N/A     54 N/A N/A E9          N/A
MOUNT PLEASANT PTSUNNY   55  54  94 NE5       30.24F
PINOPOLIS        N/A     57  52  82 E5        30.18F
MONCKS CORNER  PTSUNNY   57  52  82 E5        30.25S
SUMMERVILLE    FAIR      55  52  88 E6        30.24F
BEAUFORT MCAS  CLOUDY    56  55  97 CALM      30.22S FOG
BEAUFORT ARPT  CLOUDY    55  55 100 E5        30.22R FOG
HILTON HEAD IS FOG       52  52 100 N5        30.23S VSB 1/4
WALTERBORO     PTSUNNY   55  54  94 CALM      30.24S
ALLENDALE      CLOUDY    59  55  88 SE7       30.22R

...SOUTHERN MIDLANDS AND PEE DEE...

CITY           SKY/WX    TMP DP  RH WIND       PRES   REMARKS
GEORGETOWN     NOT AVBL
KINGSTREE      NOT AVBL
ORANGEBURG     CLOUDY    57  51  80 E7        30.25R
BARNWELL       CLOUDY    61  55  82 E5        30.23R
AIKEN          CLOUDY    57  52  82 E5        30.26F
MANNING        CLOUDY    55  43  62 E3        30.26S
COLUMBIA       CLOUDY    59  51  75 E7        30.25R
SUMTER         CLOUDY    54  50  86 E8        30.25R
FLORENCE       CLOUDY    50  47  89 E7        30.30R
MYRTLE BEACH   CLOUDY    48  43  81 NE17      30.32S
N MYRTLE BEACH CLOUDY    49  42  77 NE13G22   30.30S

$$

GAZ063-065-086>088-099>101-113>116-118-119-134>141-150-030800-
...SOUTHEAST GEORGIA...

CITY           SKY/WX    TMP DP  RH WIND       PRES   REMARKS
SAVANNAH ARPT  CLEAR     56  54  93 E10       30.22S
HUNTER AAF     PTCLDY    56  56 100 E2        30.19F
FORT STEWART   MOCLDY    57  55  94 CALM      30.19R
STATESBORO     CLOUDY    58  58 100 E6        30.21S
SYLVANIA       CLOUDY    60  60  99 SE6       30.22S
CLAXTON        CLOUDY    55  55 100 CALM      30.21S

...CSRA...CENTRAL AND FAR SOUTHEAST GEORGIA...

CITY           SKY/WX    TMP DP  RH WIND       PRES   REMARKS
THOMSON        CLOUDY    59  59 100 CALM      30.25F
AUGUSTA-BUSH   CLOUDY    58  55  90 CALM      30.21R
AUGUSTA-DANIEL CLOUDY    62  54  74 E5        30.22R
SWAINSBORO     NOT AVBL
VIDALIA        CLOUDY    61  61 100 CALM      30.20F
EASTMAN        CLOUDY    61  61 100 CALM      30.22F
HAZLEHURST     CLOUDY    60  60 100 CALM      30.18F FOG
ALMA           FOG       55  55 100 E3        30.20F VSB 1/2
WAYCROSS       MOCLDY    62  62 100 CALM      30.21F
JESUP          FAIR      61  61 100 CALM      30.22R FOG
BAXLEY         FOG       57  55  94 S3        30.19F VSB 1
BRUNSWICK      CLOUDY    57  55  94 CALM      30.22F
SAINT SIMONS   CLOUDY    56  55  97 SW3       30.22F

$$

SCZ027-028-034-036>038-045-046-048>050-GAZ119-141-030800-
...LAKE AND SUPPLEMENTAL COASTAL OBSERVATIONS...

STATION/POSITION TIME  TEMP    WIND        PRES    WAVE   SWELL
                       AIR SEA DIR/SP/G            HT/PER HT/PER/DIR
                 (UTC) (F)     (DEG/KT/KT) (MB)    (FT/S) (FT/S/D)
UPR LAKE MARION  NOT AVBL
WINYAH BAY       0645   49      50/ 11     1024.0F
LAKE MURRAY      0600   57      30/  2/  3 1023.7S
ACE BASIN NERRS  NOT AVBL
FORT PULASKI     0700           60/  6/  8   N/A
SAPELO ISLAND    0600   57     170/  5     1023.0F

$$

ANZ835-935-AMZ111-154-330-350-352-354-370-450-454-472-030800-
...C-MAN AND BUOY OBSERVATIONS...

STATION/POSITION TIME  TEMP    WIND        PRES    WAVE   SWELL
                       AIR SEA DIR/SP/G            HT/PER HT/PER/DIR
                 (UTC) (F)     (DEG/KT/KT) (MB)    (FT/S) (FT/S/D)
BUOY 41004       0650   66 67   90/ 14/ 16 1023.1F   4/ 9   3/ 9
BUOY 41008       0650   54 52  220/  6/  8 1023.1F   2/ 9   2/100/ 9
FOLLY BEACH CMAN 0700   50      60/ 10/ 11 1024.3F
CAPERS NEARSHORE NOT AVBL
FRIPP NEARSHORE  0600   51     110/  6/  6 1023.2F


STATION/POSITION TIME  TEMP    WIND        PRES    WAVE   SWELL
                       AIR SEA DIR/SP/G            HT/PER HT/PER/DIR
                 (UTC) (F)     (DEG/KT/KT) (MB)    (FT/S) (FT/S/D)
5E ST. MARYS GA  0621      54                N/A     2/ 8
FRYING PAN BUOY  0650   58 61   70/ 19/ 23 1025.0F   6/ 6   2/150/ 9
BUOY 41025       NOT AVBL
CAPE LOOKOUT NC  0700   46      40/ 23/ 25 1027.7F
BUOY 41002       0650   67 73   40/ 14/ 16 1024.0F   6/ 8   3/100/ 8
BUOY 41010       0620   73 75   50/  6/  8 1023.5F
ST AUGUSTINE FL  0700   61      10/  1/  2 1023.9F


$$



USA.gov is the U.S. government's official web portal to all federal, state and local government web resources and services.